Regional Weather Roundup
Issued by NWS

Home | Current Version | Previous Version | Graphics & Text | Print | Product List | Glossary On
Versions: 1 2 3 4 5 6 7 8 9 10 11 12 13 14 15 16 17 18 19 20 21 22 23 24 25 26 27 28
000
ASUS45 KSLC 031110
RWRUT

UTAH REGIONAL WEATHER ROUNDUP
NATIONAL WEATHER SERVICE SALT LAKE CITY UT
400 AM MST SAT DEC 03 2016

UTZ001>011-023>025-031200-

NORTHERN UTAH

CITY           SKY/WX    TMP DP  RH WIND       PRES   REMARKS
HILL AFB       CLOUDY    22  15  74 E8        30.25F WCI  12
LOGAN          NOT AVBL
OGDEN          CLOUDY    23  16  74 S10       30.26  WCI  12
SALT LAKE CITY CLOUDY    28  19  69 SE10      30.28S WCI  19
TOOELE VALLEY  CLOUDY    25  19  80 S9        30.27F WCI  15
WENDOVER       CLOUDY    27  18  69 E5        30.25F WCI  21
HEBER CITY     CLOUDY    12   9  85 CALM      30.25R
WEST JORDAN    CLOUDY    25  23  93 S5        30.28S WCI  19

$$

UTZ011>015-024>027-031200-

CENTRAL/NORTHEAST UTAH

CITY           SKY/WX    TMP DP  RH WIND       PRES   REMARKS
PROVO AIRPORT  NOT AVBL
MOAB/CANYONLAN CLEAR     21  14  74 W3        30.19F
DELTA          PTCLDY    14  14 100 SE3       30.27F
PRICE          CLEAR     17   8  67 CALM      30.17F
RICHFIELD      PTCLDY    16  14  93 N3        30.27S
ROOSEVELT      CLOUDY    18  12  79 W3        30.24S
VERNAL         CLOUDY    18   9  68 W3        30.21

$$

UTZ013>016-019>022-027-031200-

SOUTHERN UTAH

CITY           SKY/WX    TMP DP  RH WIND       PRES   REMARKS
BRYCE CANYON   NOT AVBL
CEDAR CITY     PTCLDY    16  11  80 CALM      30.23
MILFORD        CLEAR     18  15  88 SE3       30.25S
ST GEORGE      MOSUNNY   34  16  47 SW5       30.25F WCI  30
HANKSVILLE     CLEAR     18  14  86 CALM      30.24S
KANAB          CLEAR     28  14  54 N10       30.21F WCI  19

$$

REGIONAL REPORTS     COLORADO/ARIZONA

CITY           SKY/WX    TMP DP  RH WIND       PRES   REMARKS
CRAIG, CO      CLOUDY    11   6  81 W3        30.19S
GRAND JUNCTION CLEAR     18  16  92 E3        30.20F
RIFLE, CO      CLOUDY    22  15  75 W3        30.21F
MONTROSE, CO   CLOUDY    22  17  81 SE5       30.20F WCI  16
CORTEZ, CO     CLOUDY    20  18  92 NE5       30.10F WCI  13
COLORADO CITY    N/A     19  14  79 CALM      30.20F
PAGE, AZ       CLEAR     33   9  36 W6        30.16F WCI  28
GRAND CANYON   CLEAR    N/A N/A N/A E6        30.09F
KINGMAN, AZ    CLEAR     32  13  45 E10       30.11F WCI  24
FLAGSTAFF, AZ  CLEAR     25  14  63 NE15G26   30.03  WCI  13

$$

REGIONAL REPORTS    NEVADA/IDAHO/WYOMING

CITY           SKY/WX    TMP DP  RH WIND       PRES   REMARKS
LAS VEGAS, NV  NOT AVBL
ELY, NY        CLEAR      5   0  79 S13       30.27  WCI -12
ELKO, NV       CLOUDY    22  15  75 SW5       30.27F WCI  16
POCATELLO, ID  CLOUDY    29  17  61 S14       30.19  WCI  18
BURLEY, ID     CLOUDY    30  20  66 SW9       30.20  WCI  22
EVANSTON, WY   CLOUDY    13   8  81 SW12      30.15  WCI  -1
ROCK SPRINGS,  CLOUDY    16   9  74 SW25G33   30.10S WCI  -3

$$




USA.gov is the U.S. government's official web portal to all federal, state and local government web resources and services.